{"data":{"norad_id":64589,"epoch":"2026-05-25T03:03:33.941088Z","epoch_age_seconds":67103,"freshness":"FRESH","line1":"1 64589U 25135BP  26145.12747617  .00001864  00000+0  17916-3 0  9996","line2":"2 64589  97.7692 259.8939 0006091  61.4872 298.6960 14.94224388 50463","mean_motion":14.94224388,"eccentricity":0.0006091,"inclination_deg":97.7692,"raan_deg":259.8939,"arg_perigee_deg":61.4872,"mean_anomaly_deg":298.696,"bstar":0.00017916,"rev_number":5046,"period_min":96.37106793093,"perigee_km":580.54010581889,"apogee_km":589.02233279365,"semimajor_km":6962.9182193063,"source":"CELESTRAK","updated_at":"2026-05-25T13:38:04.655593Z"}}